Flag for Canada Weather past 2 weeks in Fort Smith, Northwest Territories, Canada

Now
50 °F

Passing clouds.


Feels Like: 49 °F
Forecast: 47 / 59 °F
Wind: 3 mph from Southeast

Location: Fort Smith

Current Time: Aug 31, 2014 at 2:51:46 AM

Latest Report: Aug 31, 2014 at 2:00 AM


Visibility: 15 mi

Pressure: 29.54 "Hg

Humidity: 94%

Dew point: 48 °F

Location of Fort SmithLocation

Historic Weather in Fort Smith — Graph

°F

Fort Smith temperature yesterday

Maximum temperature yesterday: 63 °F (at 11:00 AM)
Minimum temperature yesterday: 54 °F (at 10:00 PM)
Average temperature yesterday: 57 °F

Past Weeks' High & Low Weather Summary

 TemperatureHumidityPressure
High86 °F (Aug 16, 4:00 PM)100% (Aug 19, 12:00 AM)30.42 "Hg (Aug 19, 12:00 AM)
Low34 °F (Aug 22, 7:00 AM)27% (Aug 22, 2:00 PM)29.51 "Hg (Aug 30, 11:00 AM)
Average57 °F71%29.89 "Hg
* Reported Aug 16 1:00 AM — Aug 31 1:00 AM, Fort Smith, Weather by CustomWeather, © 2014

Note: Actual official high and low records may vary slightly from our data, if they occured in-between our weather recording intervals... More about our weather records

Advertising

Fort Smith weather history for previous 24 hours

 ConditionsComfort  
Time TempWeatherWind HumidityBarometerVisibility
1:00 AM
Aug 31
50 °FPassing clouds.5 mph94%29.54 "Hg15 mi
12:00 AM52 °FPassing clouds.6 mph94%29.54 "Hg15 mi
11:00 PM
Aug 30
54 °FPassing clouds.7 mph88%29.55 "Hg15 mi
10:00 PM54 °FPassing clouds.6 mph94%29.54 "Hg15 mi
9:00 PM55 °FOvercast.5 mph94%29.55 "Hg15 mi
8:00 PM55 °FOvercast.9 mph94%29.54 "Hg15 mi
7:00 PM57 °FOvercast.13 mph88%29.54 "Hg15 mi
6:00 PM55 °FLight rain. Mostly cloudy.5 mph94%29.54 "Hg15 mi
5:00 PM55 °FLight rain. Partly sunny.3 mph100%29.52 "Hg15 mi
4:00 PM55 °FLight rain. Mostly cloudy.5 mph94%29.53 "Hg15 mi
3:00 PM57 °FLight rain. Overcast.5 mph88%29.52 "Hg12 mi
2:00 PM57 °FLight rain. Overcast.5 mph88%29.52 "Hg10 mi
1:46 PMN/ALight rain.7 mphN/AN/A15 mi
1:00 PM61 °FOvercast.10 mph63%29.52 "Hg15 mi
12:00 PM63 °FBroken clouds.8 mph64%29.51 "Hg15 mi
11:00 AM63 °FPartly sunny.9 mph64%29.51 "Hg15 mi
10:00 AM59 °FPartly sunny.7 mph77%29.52 "Hg15 mi
9:00 AM57 °FBroken clouds.9 mph77%29.52 "Hg15 mi
8:00 AM57 °FPartly sunny.7 mph77%29.53 "Hg15 mi
7:00 AM55 °FPassing clouds.7 mph77%29.54 "Hg15 mi
6:00 AM57 °FPassing clouds.8 mph67%29.55 "Hg15 mi
5:00 AM59 °FPassing clouds.5 mph68%29.56 "Hg15 mi
4:00 AM57 °FPassing clouds.No wind67%29.57 "Hg15 mi
2:00 AM57 °FPassing clouds.6 mph67%29.61 "Hg15 mi
Weather by CustomWeather, © 2014

See weather overviewHow to use our weather pages